Location: Gro�bocka
(50.8204°N, 11.9702°E)
Time: 13:24:56
(UTC+00:00)

Helios 1A Rocket - Pass Details

Date: 29 October 2020
Orbit: 562 x 587 km, 98.3° (Epoch: 28 November)

Event Time Altitude Azimuth Distance (km) Brightness Sun altitude
Rises 17:13:35 0° 157° (SSE) 2,794 6.2 -13.4°
Reaches altitude 10° 17:15:45 10° 155° (SSE) 1,896 5.4 -13.8°
Maximum altitude 17:19:49 69° 73° (ENE) 625 2.8 -14.4°
Drops below altitude 10° 17:23:55 10° 350° (N) 1,897 5.6 -15.0°
Sets 17:26:04 0° 348° (NNW) 2,796 6.5 -15.4°
